This is the latest recevied weather packets stored in our database for station/object VU36VU-14. If no packets are shown the sender has not sent any weather packets the latest 1 day(s).
| Time | Temp. | Humidity | Pressure | Rain* | Wind** | Luminosity | Snow |
|---|---|---|---|---|---|---|---|
| 1778046341 | 35.56° C | 37% | 1008 hPa | 0 mm | 2.68 m/s, 15° | - | - |
| 1778046221 | 35.56° C | 38% | 1008 hPa | 0 mm | 3.58 m/s, 7° | - | - |
| 1778046101 | 35.56° C | 38% | 1008 hPa | 0 mm | 3.58 m/s, 7° | - | - |
| 1778045983 | 35.56° C | 38% | 1008 hPa | 0 mm | 3.58 m/s, 7° | - | - |
| 1778045741 | 35.56° C | 38% | 1008 hPa | 0 mm | 3.58 m/s, 7° | - | - |
| 1778045621 | 35.56° C | 38% | 1008 hPa | 0 mm | 3.58 m/s, 7° | - | - |
| 1778045501 | 35.56° C | 38% | 1008 hPa | 0 mm | 3.58 m/s, 7° | - | - |
| 1778045381 | 35° C | 40% | 1008 hPa | 0 mm | 4.02 m/s, 2° | - | - |
| 1778045261 | 35° C | 40% | 1008 hPa | 0 mm | 4.02 m/s, 2° | - | - |
| 1778045142 | 35° C | 40% | 1008 hPa | 0 mm | 4.02 m/s, 2° | - | - |
| 1778045021 | 35° C | 40% | 1008 hPa | 0 mm | 4.02 m/s, 2° | - | - |
| 1778044901 | 35° C | 40% | 1008 hPa | 0 mm | 4.02 m/s, 2° | - | - |
| 1778044781 | 35° C | 40% | 1008 hPa | 0 mm | 4.02 m/s, 2° | - | - |
| 1778044541 | 35° C | 40% | 1008 hPa | 0 mm | 4.02 m/s, 2° | - | - |
| 1778044421 | 34.44° C | 41% | 1008 hPa | 0 mm | 4.47 m/s, 358° | - | - |
| 1778044301 | 34.44° C | 41% | 1008 hPa | 0 mm | 4.47 m/s, 358° | - | - |
| 1778044181 | 34.44° C | 41% | 1008 hPa | 0 mm | 4.47 m/s, 358° | - | - |
| 1778044061 | 34.44° C | 41% | 1008 hPa | 0 mm | 4.47 m/s, 358° | - | - |
| 1778043941 | 34.44° C | 41% | 1008 hPa | 0 mm | 4.47 m/s, 358° | - | - |
| 1778043821 | 34.44° C | 41% | 1008 hPa | 0 mm | 4.47 m/s, 358° | - | - |
| 1778043702 | 34.44° C | 41% | 1008 hPa | 0 mm | 4.47 m/s, 358° | - | - |
| 1778043582 | 34.44° C | 42% | 1008 hPa | 0 mm | 4.02 m/s, 356° | - | - |
| 1778043461 | 34.44° C | 42% | 1008 hPa | 0 mm | 1.34 m/s, 347° | - | - |
| 1778043221 | 34.44° C | 42% | 1008 hPa | 0 mm | 1.34 m/s, 347° | - | - |
| 1778043101 | 34.44° C | 42% | 1008 hPa | 0 mm | 1.34 m/s, 347° | - | - |
* Rain latest hour (hover to see other rain measurements)
** Current wind speed in m/s (hover to see current wind gust speed)